Weather in Nivy

Russia / Kaliningrad Oblast     54°46′49″N   20°05′30″E
temp.,
°C
wind,
m/s
gust,
m/s
humid.,
%
clouds,
%
prec.,
mm/h
press.,
hPa
HPBL,
m
17 april, sat
sat1723:00+8nne3685100 0.1 1019117
02:00+8nne598299 0.1 1019184
05:00+7ne498973 0.0 1019186
08:00+9ene4886100 0.0 1020292
11:00+9ne4690100 0.6 1020277
14:00+12ne567520 0.6 1021586
17:00+12ne567560 0.1 1020513
20:00+8ne47935 0.1 1021125
18 april, sun
sun1823:00+9ene4890100 0.0 1022166
02:00+9ene598382 0.0 1022241
05:00+6ene489236 0.0 1022134
08:00+9ene47826 0.0 1022256
11:00+13ene46695 0.0 1022742
14:00+14ne566438 0.0 1021880
17:00+13nne576616 0.0 1021418
20:00+10ne46815 0.0 102184
19 april, mon
mon1923:00+10ene478197 0.0 1022113
02:00+9ene3680100 0.0 1021101
05:00+9e3585100 0.0 1021123
08:00+9ene3783100 0.0 1022214
11:00+11ese456829 0.0 1022525
14:00+12e355570 0.0 10211347
17:00+12ne576496 0.1 1020554
20:00+9ene597715 0.1 1020335
20 april, tue
tue2023:00+7ene3683100 0.0 1020159
02:00+8ne2378100 0.0 101980
05:00+7ne3680100 0.0 1018139
08:00+8ne4678100 0.0 1017242
11:00+10ne4571100 0.4 1016511
14:00+11nne446472 0.7 1015915
17:00+10n56676 0.1 1014566
20:00+6n36835 0.1 1013104
21 april, wed
wed2123:00+5n33855 0.0 101250
02:00+5nw35895 0.0 101173
05:00+4nw49885 0.0 1009179
08:00+7nw58785 0.0 1009274
11:00+8nw56687 0.0 1009513
14:00+9wnw46665 0.0 1008553
17:00+8wnw34675 0.0 1008370
20:00+6nw11844 0.0 100810